Weather History for KNUW - July, 2013

Change the Weather History Date:

Thursday, July 18, 2013

  Actual Average Record
Temperature  
Mean Temperature 60 °F -  
Max Temperature 64 °F 64 °F 73 °F (2004)
Min Temperature 55 °F 49 °F 46 °F (2003)
Degree Days  
Heating Degree Days 6    
Growing Degree Days 10 (Base 50)    
Moisture  
Dew Point 53 °F    
Average Humidity 81    
Maximum Humidity 89    
Minimum Humidity 68    
Precipitation  
Precipitation 0.00 in - - ()
Sea Level Pressure  
Sea Level Pressure 30.22 in    
Wind  
Wind Speed 7 mph (WSW)    
Max Wind Speed 12 mph    
Max Gust Speed -    
Visibility 10 miles    
Events      
Averages and records for this station are not official NWS values.
T = Trace of Precipitation, MM = Missing Value Source: NWS Daily Summary

Daily Weather History Graph

Daily Weather History Graph

Search for Another Location

Airport or City:

Trip Planner

Search our weather history database for the weather conditions in past years. The results will help you decide how hot, cold, wet, or windy it might be!

Date:

Astronomy

Jul. 18, 2013 Rise Set
Actual Time 5:28 AM PDT 9:04 PM PDT
Civil Twilight 4:49 AM PDT 9:43 PM PDT
Nautical Twilight 3:57 AM PDT 10:35 PM PDT
Astronomical Twilight 2:44 AM PDT 11:47 PM PDT
Moon 5:04 PM PDT (7/18) 1:28 AM PDT (7/18)
Length of Visible Light 16h 53m
Length of Day
15h 35m
Waxing Gibbous, 78% of the Moon is Illuminated
Jul 18
Waxing Gibbous
Jul 22
Full
Jul 29
Last Quarter
Aug 6
New
Aug 14
First Quarter

Hourly Weather History & Observations

Time (PDT) Temp. Dew Point Humidity Pressure Visibility Wind Dir Wind Speed Gust Speed Precip Events Conditions
12:56 AM 55.9 °F 52.0 °F 87% 30.22 in 10.0 mi SW 6.9 mph - N/A   Scattered Clouds
1:56 AM 55.0 °F 52.0 °F 89% 30.23 in 10.0 mi SW 6.9 mph - N/A   Partly Cloudy
2:56 AM 55.9 °F 52.0 °F 87% 30.23 in 10.0 mi SW 6.9 mph - N/A   Scattered Clouds
3:56 AM 55.0 °F 52.0 °F 89% 30.22 in 10.0 mi SW 4.6 mph - N/A   Scattered Clouds
4:56 AM 55.9 °F 52.0 °F 87% 30.23 in 10.0 mi WSW 9.2 mph - N/A   Mostly Cloudy
5:56 AM 55.9 °F 52.0 °F 87% 30.24 in 10.0 mi West 5.8 mph - N/A   Mostly Cloudy
6:56 AM 57.0 °F 53.1 °F 87% 30.25 in 10.0 mi WSW 3.5 mph - N/A   Overcast
7:56 AM 57.9 °F 53.1 °F 84% 30.25 in 10.0 mi WSW 6.9 mph - N/A   Mostly Cloudy
8:56 AM 59.0 °F 53.1 °F 81% 30.26 in 10.0 mi WSW 6.9 mph - N/A   Mostly Cloudy
9:56 AM 59.0 °F 52.0 °F 78% 30.26 in 10.0 mi West 6.9 mph - N/A   Mostly Cloudy
10:56 AM 61.0 °F 53.1 °F 75% 30.25 in 10.0 mi West 5.8 mph - N/A   Mostly Cloudy
11:56 AM 62.1 °F 52.0 °F 70% 30.25 in 10.0 mi West 6.9 mph - N/A   Scattered Clouds
12:56 PM 63.0 °F 53.1 °F 70% 30.24 in 10.0 mi West 6.9 mph - N/A   Scattered Clouds
1:56 PM 63.0 °F 54.0 °F 72% 30.23 in 10.0 mi West 6.9 mph - N/A   Scattered Clouds
2:56 PM 64.9 °F 54.0 °F 68% 30.22 in 10.0 mi West 6.9 mph - N/A   Scattered Clouds
3:56 PM 64.0 °F 54.0 °F 70% 30.20 in 10.0 mi WSW 8.1 mph - N/A   Scattered Clouds
4:56 PM 63.0 °F 55.0 °F 75% 30.19 in 10.0 mi WSW 9.2 mph - N/A   Partly Cloudy
5:56 PM 62.1 °F 54.0 °F 75% 30.19 in 10.0 mi WSW 11.5 mph - N/A   Partly Cloudy
6:56 PM 60.1 °F 54.0 °F 80% 30.18 in 10.0 mi WSW 6.9 mph - N/A   Clear
7:56 PM 59.0 °F 53.1 °F 81% 30.17 in 10.0 mi West 5.8 mph - N/A   Clear
8:56 PM 57.0 °F 53.1 °F 87% 30.17 in 10.0 mi WSW 4.6 mph - N/A   Clear
9:56 PM 55.9 °F 52.0 °F 87% 30.18 in 10.0 mi WSW 5.8 mph - N/A   Clear
10:56 PM 55.9 °F 52.0 °F 87% 30.17 in 10.0 mi SW 3.5 mph - N/A   Clear
11:56 PM 55.0 °F 52.0 °F 89% 30.18 in 10.0 mi SW 3.5 mph - N/A   Clear